Terminal Aerodrome Forecast
Issued by NWS

Home | Current Version | Previous Version | Text Only | Print | Product List | Glossary On
Versions: 1 2 3 4 5 6 7 8 9 10 11 12
000
FTUS42 KTAE 251129
TAFABY
TAF
KABY 251129Z 2512/2612 19008KT P6SM VCSH BKN050 BKN200
     FM251400 23015G23KT P6SM SHRA VCTS BKN040CB
      TEMPO 2514/2516 1SM +TSRA BKN020CB
     FM260000 23011KT P6SM SCT030 BKN100
     FM260800 23008KT P6SM BKN007=

USA.gov is the U.S. government's official web portal to all federal, state and local government web resources and services.